Flag for Portugal Weather past 2 weeks in Ponta Delgada, Azores, Portugal

Now
63 °F

Passing clouds.


Feels Like: 63 °F
Forecast: N/A
Wind: 7 mph from Northeast

Location: Ponta Delgada / Nordela Acores

Current Time: May 29, 2015 at 10:48:52 PM

Latest Report: May 29, 2015 at 10:30 PM


Visibility: N/A

Pressure: 30.30 "Hg

Humidity: 77%

Dew point: 55 °F

Location of Ponta DelgadaLocation

Historic Weather in Ponta Delgada — Graph

°F

Ponta Delgada temperature yesterday

Maximum temperature yesterday: 68 °F (at 1:30 PM)
Minimum temperature yesterday: 61 °F (at 12:00 AM)
Average temperature yesterday: 63 °F

Past Weeks' High & Low Weather Summary

 TemperatureHumidityPressure
High68 °F (May 17, 4:00 PM)94% (May 17, 4:00 AM)30.57 "Hg (May 17, 4:00 AM)
Low57 °F (May 15, 4:00 AM)60% (May 26, 12:00 PM)30.27 "Hg (May 27, 6:30 PM)
Average63 °F81%30.41 "Hg
* Reported May 14 9:00 PM — May 29 9:30 PM, Ponta Delgada, Weather by CustomWeather, © 2015

Note: Actual official high and low records may vary slightly from our data, if they occured in-between our weather recording intervals... More about our weather records

Advertising

Ponta Delgada weather history for previous 24 hours

 ConditionsComfort  
Time TempWeatherWind HumidityBarometerVisibility
9:30 PM
Fri, May 29
63 °FScattered clouds.5 mph77%30.30 "HgN/A
8:30 PM64 °FScattered clouds.8 mph73%30.27 "HgN/A
8:00 PM64 °FScattered clouds.9 mph73%30.27 "HgN/A
7:30 PM64 °FScattered clouds.9 mph73%30.27 "HgN/A
7:00 PM64 °FPartly sunny.8 mph73%30.27 "HgN/A
6:30 PM66 °FScattered clouds.8 mph68%30.27 "HgN/A
6:00 PM66 °FScattered clouds.7 mph73%30.27 "HgN/A
5:30 PM66 °FScattered clouds.7 mph78%30.27 "HgN/A
5:00 PM68 °FScattered clouds.6 mph60%30.27 "HgN/A
4:30 PM68 °FScattered clouds.10 mph60%30.27 "HgN/A
4:00 PM68 °FScattered clouds.13 mph60%30.27 "HgN/A
3:30 PM68 °FScattered clouds.14 mph60%30.27 "HgN/A
3:00 PM68 °FScattered clouds.15 mph60%30.27 "HgN/A
2:30 PM68 °FScattered clouds.14 mph64%30.27 "HgN/A
2:00 PM68 °FScattered clouds.13 mph64%30.27 "HgN/A
1:30 PM68 °FPassing clouds.13 mph64%30.27 "HgN/A
1:00 PM66 °FPassing clouds.12 mph68%30.27 "HgN/A
12:30 PM66 °FPassing clouds.13 mph64%30.30 "HgN/A
12:00 PM66 °FScattered clouds.13 mph60%30.30 "HgN/A
11:30 AM66 °FPassing clouds.14 mph64%30.30 "HgN/A
11:00 AM66 °FPassing clouds.13 mph64%30.30 "HgN/A
10:30 AM64 °FPassing clouds.13 mph68%30.30 "HgN/A
10:00 AM64 °FPassing clouds.15 mph68%30.30 "HgN/A
9:30 AM64 °FPassing clouds.12 mph68%30.30 "HgN/A
9:00 AM63 °FPassing clouds.14 mph68%30.27 "HgN/A
8:30 AM63 °FPassing clouds.13 mph68%30.27 "HgN/A
8:00 AM61 °FPassing clouds.10 mph72%30.27 "HgN/A
7:30 AM61 °FPassing clouds.12 mph72%30.27 "HgN/A
7:00 AM59 °FPassing clouds.10 mph77%30.27 "HgN/A
6:30 AM59 °FPassing clouds.12 mph77%30.27 "HgN/A
6:00 AM59 °FPassing clouds.9 mph77%30.27 "HgN/A
5:30 AM59 °FPassing clouds.8 mph77%30.27 "HgN/A
5:00 AM59 °FPassing clouds.5 mph77%30.27 "HgN/A
4:30 AM59 °FPassing clouds.7 mph77%30.27 "HgN/A
3:30 AM59 °FPassing clouds.7 mph77%30.27 "HgN/A
3:00 AM59 °FPassing clouds.6 mph77%30.27 "HgN/A
2:30 AM59 °FPassing clouds.8 mph77%30.27 "HgN/A
2:00 AM59 °FPassing clouds.8 mph77%30.27 "HgN/A
1:30 AM59 °FPassing clouds.6 mph77%30.27 "HgN/A
1:00 AM59 °FPassing clouds.5 mph77%30.30 "HgN/A
12:30 AM61 °FPassing clouds.6 mph72%30.30 "HgN/A
12:00 AM61 °FPassing clouds.12 mph72%30.30 "HgN/A
11:30 PM
Thu, May 28
61 °FPassing clouds.12 mph72%30.30 "HgN/A
10:00 PM61 °FPassing clouds.10 mph72%30.27 "HgN/A
Weather by CustomWeather, © 2015

See weather overviewHow to use our weather pages